This is the latest recevied weather packets stored in our database for station/object W9GWP. If no packets are shown the sender has not sent any weather packets the latest 10 day(s).
| Time | Temp. | Humidity | Pressure | Rain* | Wind** | Luminosity | Snow |
|---|---|---|---|---|---|---|---|
| 1777735827 | 8.89° C | 51% | 1049.1 hPa | 0 mm | - | 548 W/m² | - |
| 1777734924 | 8.89° C | 51% | 1049.1 hPa | 0 mm | - | 672 W/m² | - |
| 1777734021 | 8.33° C | 49% | 1049 hPa | 0 mm | - | 475 W/m² | - |
| 1777733117 | 8.33° C | 48% | 1049 hPa | 0 mm | - | 575 W/m² | - |
| 1777732214 | 7.78° C | 49% | 1049.1 hPa | 0 mm | - | 436 W/m² | - |
| 1777731311 | 7.22° C | 55% | 1048.9 hPa | 0 mm | - | 361 W/m² | - |
| 1777730409 | 7.78° C | 60% | 1049.2 hPa | 0 mm | - | 237 W/m² | - |
| 1777729504 | 6.67° C | 65% | 1049.2 hPa | 0 mm | - | 273 W/m² | - |
| 1777728600 | 6.67° C | 72% | 1049.1 hPa | 0 mm | - | 246 W/m² | - |
| 1777727697 | 5.56° C | 77% | 1049.2 hPa | 0 mm | - | 181 W/m² | - |
| 1777726795 | 5° C | 80% | 1049.1 hPa | 0 mm | - | 160 W/m² | - |
| 1777725891 | 3.89° C | 83% | 1049 hPa | 0 mm | - | 120 W/m² | - |
| 1777724988 | 3.33° C | 88% | 1049.1 hPa | 0 mm | - | 69 W/m² | - |
| 1777724085 | 2.22° C | 93% | 1048.9 hPa | 0 mm | - | 59 W/m² | - |
| 1777723182 | 1.67° C | 95% | 1048.9 hPa | 0 mm | - | 53 W/m² | - |
| 1777722277 | 1.11° C | 96% | 1048.6 hPa | 0 mm | - | 29 W/m² | - |
| 1777721377 | 0° C | 97% | 1048.4 hPa | 0 mm | - | 20 W/m² | - |
| 1777720473 | -1.11° C | 97% | 1048.4 hPa | 0 mm | - | 10 W/m² | - |
| 1777719571 | -1.11° C | 97% | 1048.6 hPa | 0 mm | - | 2 W/m² | - |
| 1777718669 | -1.11° C | 97% | 1048.7 hPa | 0 mm | - | 0 W/m² | - |
| 1777717766 | -1.11° C | 97% | 1048.1 hPa | 0 mm | - | 0 W/m² | - |
| 1777716865 | -1.11° C | 97% | 1048.6 hPa | 0 mm | - | 0 W/m² | - |
| 1777715965 | -1.67° C | 97% | 1048.3 hPa | 0 mm | - | 0 W/m² | - |
| 1777715063 | -1.67° C | 97% | 1048.4 hPa | 0 mm | - | 0 W/m² | - |
| 1777714162 | -1.67° C | 97% | 1048.4 hPa | 0 mm | - | 0 W/m² | - |
* Rain latest hour (hover to see other rain measurements)
** Current wind speed in m/s (hover to see current wind gust speed)